H1 CPF 2 NER 2021 12 22 9 356 01 glonass133 H2 1403201 9133 40001 2021 12 22 0 0 0 2021 12 25 23 45 0 900 1 1 0 0 0 1 H9 10 0 59570 0.00000 0 9241903.774 7301416.060 22628837.660 10 0 59570 900.00000 0 9003414.266 10027079.349 21658039.960 10 0 59570 1800.00000 0 8978031.367 12618243.229 20266646.762 10 0 59570 2700.00000 0 9144075.684 15009007.600 18481559.976 10 0 59570 3600.00000 0 9468737.157 17140059.571 16337347.194 10 0 59570 4500.00000 0 9909585.616 18960942.556 13875579.596 10 0 59570 5400.00000 0 10416502.999 20431967.445 11144031.402 10 0 59570 6300.00000 0 10933956.011 21525685.848 8195755.611 10 0 59570 7200.00000 0 11403513.114 22227863.413 5088053.669 10 0 59570 8100.00000 0 11766499.074 22537912.183 1881358.982 10 0 59570 9000.00000 0 11966673.985 22468763.689 -1361943.718 10 0 59570 9900.00000 0 11952822.320 22046188.177 -4578739.441 10 0 59570 10800.00000 0 11681141.107 21307588.948 -7706419.835 10 0 59570 11700.00000 0 11117324.722 20300323.228 -10684110.795 10 0 59570 12600.00000 0 10238256.652 19079621.136 -13453865.726 10 0 59570 13500.00000 0 9033235.369 17706191.468 -15961800.334 10 0 59570 14400.00000 0 7504681.291 16243616.187 -18159146.095 10 0 59570 15300.00000 0 5668294.052 14755644.313 -20003201.376 10 0 59570 16200.00000 0 3552652.599 13303499.879 -21458161.575 10 0 59570 17100.00000 0 1198274.244 11943317.562 -22495812.333 10 0 59570 18000.00000 0 -1343828.331 10723813.903 -23096072.699 10 0 59570 18900.00000 0 -4014032.171 9684291.554 -23247378.365 10 0 59570 19800.00000 0 -6746352.927 8853059.646 -22946898.273 10 0 59570 20700.00000 0 -9470964.014 8246335.561 -22200581.075 10 0 59570 21600.00000 0 -12116881.614 7867672.937 -21023031.317 10 0 59570 22500.00000 0 -14614704.331 7707938.530 -19437218.239 10 0 59570 23400.00000 0 -16899294.057 7745837.546 -17474023.329 10 0 59570 24300.00000 0 -18912287.369 7948964.028 -15171635.647 10 0 59570 25200.00000 0 -20604333.788 8275330.990 -12574806.777 10 0 59570 26100.00000 0 -21936968.655 8675314.940 -9733979.939 10 0 59570 27000.00000 0 -22884043.635 9093932.176 -6704310.120 10 0 59570 27900.00000 0 -23432656.321 9473350.378 -3544594.155 10 0 59570 28800.00000 0 -23583541.151 9755529.257 -316131.517 10 0 59570 29700.00000 0 -23350906.470 9884878.666 2918462.166 10 0 59570 30600.00000 0 -22761725.470 9810821.919 6096465.985 10 0 59570 31500.00000 0 -21854511.592 9490156.091 9156265.565 10 0 59570 32400.00000 0 -20677630.296 8889109.637 12038542.586 10 0 59570 33300.00000 0 -19287218.342 7985010.354 14687419.272 10 0 59570 34200.00000 0 -17744797.899 6767493.032 17051536.010 10 0 59570 35100.00000 0 -16114685.307 5239195.295 19085041.779 10 0 59570 36000.00000 0 -14461302.607 3415911.388 20748478.778 10 0 59570 36900.00000 0 -12846503.861 1326196.182 22009544.645 10 0 59570 37800.00000 0 -11327027.465 -989565.649 22843718.041 10 0 59570 38700.00000 0 -9952180.289 -3480588.239 23234735.841 10 0 59570 39600.00000 0 -8761849.937 -6087553.203 23174912.792 10 0 59570 40500.00000 0 -7784927.696 -8744842.474 22665297.326 10 0 59570 41400.00000 0 -7038207.857 -11383044.172 21715660.066 10 0 59570 42300.00000 0 -6525809.376 -13931628.706 20344314.559 10 0 59570 43200.00000 0 -6239144.127 -16321685.008 18577772.783 10 0 59570 44100.00000 0 -6157433.290 -18488603.801 16450241.043 10 0 59570 45000.00000 0 -6248750.388 -20374596.449 14002965.004 10 0 59570 45900.00000 0 -6471547.305 -21930944.370 11283435.597 10 0 59570 46800.00000 0 -6776599.013 -23119884.793 8344470.440 10 0 59570 47700.00000 0 -7109284.791 -23916053.427 5243188.249 10 0 59570 48600.00000 0 -7412109.103 -24307423.135 2039896.067 10 0 59570 49500.00000 0 -7627354.759 -24295698.711 -1203088.783 10 0 59570 50400.00000 0 -7699755.006 -23896150.893 -4422658.369 10 0 59570 51300.00000 0 -7579070.166 -23136896.557 -7556150.863 10 0 59570 52200.00000 0 -7222458.256 -22057655.654 -10542579.191 10 0 59570 53100.00000 0 -6596537.813 -20708037.745 -13323826.532 10 0 59570 54000.00000 0 -5679054.223 -19145431.047 -15845784.474 10 0 59570 54900.00000 0 -4460077.830 -17432583.699 -18059410.936 10 0 59570 55800.00000 0 -2942682.171 -15634979.869 -19921686.687 10 0 59570 56700.00000 0 -1143072.822 -13818121.738 -21396451.771 10 0 59570 57600.00000 0 909839.355 -12044831.984 -22455105.714 10 0 59570 58500.00000 0 3175403.160 -10372690.137 -23077158.292 10 0 59570 59400.00000 0 5602690.306 -8851710.055 -23250620.816 10 0 59570 60300.00000 0 8132396.166 -7522355.164 -22972231.043 10 0 59570 61200.00000 0 10699098.986 -6413973.653 -22247508.091 10 0 59570 62100.00000 0 13233783.729 -5543717.810 -21090636.983 10 0 59570 63000.00000 0 15666525.856 -4915991.252 -19524185.614 10 0 59570 63900.00000 0 17929223.677 -4522445.600 -17578660.063 10 0 59570 64800.00000 0 19958266.093 -4342525.118 -15291907.156 10 0 59570 65700.00000 0 21697025.294 -4344534.871 -12708375.987 10 0 59570 66600.00000 0 23098071.193 -4487186.187 -9878252.813 10 0 59570 67500.00000 0 24125016.101 -4721553.238 -6856486.078 10 0 59570 68400.00000 0 24753913.506 -4993357.433 -3701720.407 10 0 59570 69300.00000 0 24974153.356 -5245482.672 -475160.275 10 0 59570 70200.00000 0 24788817.305 -5420614.954 2760614.718 10 0 59570 71100.00000 0 24214479.844 -5463894.637 5942860.086 10 0 59570 72000.00000 0 23280464.288 -5325469.310 9009878.795 10 0 59570 72900.00000 0 22027585.315 -4962839.403 11902212.426 10 0 59570 73800.00000 0 20506430.973 -4342897.439 14563788.421 10 0 59570 74700.00000 0 18775256.166 -3443574.714 16943001.476 10 0 59570 75600.00000 0 16897575.577 -2255025.534 18993708.709 10 0 59570 76500.00000 0 14939556.260 -780298.439 20676119.886 10 0 59570 77400.00000 0 12967318.321 964534.872 21957565.980 10 0 59570 78300.00000 0 11044255.665 2950799.724 22813131.733 10 0 59570 79200.00000 0 9228487.852 5138171.934 23226140.337 10 0 59570 80100.00000 0 7570548.673 7476126.518 23188480.944 10 0 59570 81000.00000 0 6111407.168 9905823.179 22700772.604 10 0 59570 81900.00000 0 4880903.113 12362351.878 21772360.999 10 0 59570 82800.00000 0 3896662.009 14777246.549 20421147.364 10 0 59570 83700.00000 0 3163534.631 17081163.634 18673252.007 10 0 59570 84600.00000 0 2673584.540 19206614.824 16562517.870 10 0 59570 85500.00000 0 2406624.073 21090640.486 14129862.737 10 0 59571 0.00000 0 2331276.267 22677312.220 11422491.906 10 0 59571 900.00000 0 2406517.915 23919960.421 8492984.334 10 0 59571 1800.00000 0 2583638.556 24783030.982 5398273.313 10 0 59571 2700.00000 0 2808532.015 25243495.435 2198536.508 10 0 59571 3600.00000 0 3024223.064 25291752.411 -1043979.206 10 0 59571 4500.00000 0 3173521.199 24931982.816 -4266175.938 10 0 59571 5400.00000 0 3201687.949 24181943.212 -7405341.237 10 0 59571 6300.00000 0 3059003.366 23072205.967 -10400377.708 10 0 59571 7200.00000 0 2703121.589 21644878.314 -13193000.685 10 0 59571 8100.00000 0 2101114.353 19951854.642 -15728879.728 10 0 59571 9000.00000 0 1231114.692 18052676.131 -17958700.969 10 0 59571 9900.00000 0 83490.291 16012088.408 -19839129.049 10 0 59571 10800.00000 0 -1338504.002 13897400.429 -21333649.829 10 0 59571 11700.00000 0 -3018622.748 11775755.828 -22413277.611 10 0 59571 12600.00000 0 -4928080.505 9711431.366 -23057113.497 10 0 59571 13500.00000 0 -7026538.003 7763275.401 -23252744.688 10 0 59571 14400.00000 0 -9263582.999 5982393.006 -22996477.673 10 0 59571 15300.00000 0 -11580644.153 4410173.671 -22293401.542 10 0 59571 16200.00000 0 -13913258.307 3076742.718 -21157280.863 10 0 59571 17100.00000 0 -16193596.909 1999899.656 -19610280.807 10 0 59571 18000.00000 0 -18353146.500 1184586.148 -17682530.253 10 0 59571 18900.00000 0 -20325431.957 622904.074 -15411531.654 10 0 59571 19800.00000 0 -22048669.375 294681.072 -12841429.209 10 0 59571 20700.00000 0 -23468238.418 168558.230 -10022149.638 10 0 59571 21600.00000 0 -24538871.500 203552.667 -7008432.194 10 0 59571 22500.00000 0 -25226469.008 351028.057 -3858766.630 10 0 59571 23400.00000 0 -25509465.215 556989.109 -634259.779 10 0 59571 24300.00000 0 -25379688.437 764602.577 2602547.388 10 0 59571 25200.00000 0 -24842679.957 916837.938 5788889.365 10 0 59571 26100.00000 0 -23917458.842 959116.054 8862988.954 10 0 59571 27000.00000 0 -22635742.837 841853.866 11765250.069 10 0 59571 27900.00000 0 -21040658.111 522797.611 14439407.686 10 0 59571 28800.00000 0 -19184991.784 -30953.941 16833612.975 10 0 59571 29700.00000 0 -17129060.062 -841321.796 18901433.135 10 0 59571 30600.00000 0 -14938280.490 -1918083.633 20602747.154 10 0 59571 31500.00000 0 -12680549.074 -3258224.966 21904520.653 10 0 59571 32400.00000 0 -10423530.799 -4845832.943 22781445.387 10 0 59571 33300.00000 0 -8231975.539 -6652538.726 23216431.392 10 0 59571 34200.00000 0 -6165170.347 -8638491.573 23200942.365 10 0 59571 35100.00000 0 -4274633.317 -10753825.799 22735167.729 10 0 59571 36000.00000 0 -2602144.370 -12940561.255 21828027.626 10 0 59571 36900.00000 0 -1178194.490 -15134859.698 20497010.054 10 0 59571 37800.00000 0 -20917.672 -17269544.460 18767842.418 10 0 59571 38700.00000 0 864450.111 -19276779.390 16674002.783 10 0 59571 39600.00000 0 1485562.404 -21090795.862 14256079.265 10 0 59571 40500.00000 0 1862404.778 -22650554.120 11560989.002 10 0 59571 41400.00000 0 2026212.008 -23902227.420 8641071.052 10 0 59571 42300.00000 0 2017905.743 -24801404.277 5553070.446 10 0 59571 43200.00000 0 1886119.132 -25314915.642 2357032.998 10 0 59571 44100.00000 0 1684892.536 -25422209.343 -884867.396 10 0 59571 45000.00000 0 1471138.740 -25116213.058 -4109545.465 10 0 59571 45900.00000 0 1301986.127 -24403648.760 -7254240.732 10 0 59571 46800.00000 0 1232113.678 -23304784.860 -10257748.083 10 0 59571 47700.00000 0 1311192.022 -21852636.245 -13061617.599 10 0 59571 48600.00000 0 1581540.316 -20091645.911 -15611299.348 10 0 59571 49500.00000 0 2076099.360 -18075903.909 -17857210.090 10 0 59571 50400.00000 0 2816807.751 -15866978.888 -19755700.568 10 0 59571 51300.00000 0 3813450.553 -13531453.751 -21269904.406 10 0 59571 52200.00000 0 5063029.802 -11138269.063 -22370452.278 10 0 59571 53100.00000 0 6549683.790 -8755985.727 -23036037.795 10 0 59571 54000.00000 0 8245159.000 -6450081.307 -23253824.793 10 0 59571 54900.00000 0 10109815.128 -4280392.493 -23019688.806 10 0 59571 55800.00000 0 12094121.337 -2298809.797 -22338288.774 10 0 59571 56700.00000 0 14140581.291 -547319.498 -21222968.311 10 0 59571 57600.00000 0 16186006.759 943526.909 -19695488.976 10 0 59571 58500.00000 0 18164044.949 2155653.492 -17785601.199 10 0 59571 59400.00000 0 20007854.292 3083969.294 -15530461.440 10 0 59571 60300.00000 0 21652817.245 3736326.989 -12973907.010 10 0 59571 61200.00000 0 23039177.037 4132934.341 -10165602.726 10 0 59571 62100.00000 0 24114488.582 4305244.934 -7160075.930 10 0 59571 63000.00000 0 24835781.446 4294376.303 -4015658.486 10 0 59571 63900.00000 0 25171344.737 4149123.259 -793356.358 10 0 59571 64800.00000 0 25102059.633 3923651.092 2444331.442 10 0 59571 65700.00000 0 24622224.078 3674966.608 5634621.705 10 0 59571 66600.00000 0 23739835.352 3460274.088 8715660.276 10 0 59571 67500.00000 0 22476318.866 3334327.990 11627716.390 10 0 59571 68400.00000 0 20865714.478 3346894.204 14314335.274 10 0 59571 69300.00000 0 18953354.199 3540426.944 16723426.973 10 0 59571 70200.00000 0 16794086.156 3948059.347 18808270.843 10 0 59571 71100.00000 0 14450118.311 4591992.623 20528416.830 10 0 59571 72000.00000 0 11988571.151 5482352.011 21850466.613 10 0 59571 72900.00000 0 9478840.363 6616558.364 22748720.022 10 0 59571 73800.00000 0 6989878.236 7979242.885 23205674.626 10 0 59571 74700.00000 0 4587505.922 9542709.895 23212368.959 10 0 59571 75600.00000 0 2331867.304 11267929.944 22768562.678 10 0 59571 76500.00000 0 275129.470 13106023.430 21882749.778 10 0 59571 77400.00000 0 -1540475.186 15000174.402 20572003.941 10 0 59571 78300.00000 0 -3084184.326 16887896.126 18861658.135 10 0 59571 79200.00000 0 -4337754.839 18703554.960 16784823.589 10 0 59571 80100.00000 0 -5295982.288 20381047.826 14381756.441 10 0 59571 81000.00000 0 -5966669.100 21856521.587 11699083.321 10 0 59571 81900.00000 0 -6370043.140 23071020.354 8788900.082 10 0 59571 82800.00000 0 -6537651.341 23972949.129 5707760.758 10 0 59571 83700.00000 0 -6510775.541 24520249.500 2515576.251 10 0 59571 84600.00000 0 -6338438.013 24682194.889 -725555.629 10 0 59571 85500.00000 0 -6075081.860 24440728.656 -3952565.296 10 0 59572 0.00000 0 -5778025.540 23791287.781 -7102646.951 10 0 59572 900.00000 0 -5504800.374 22743076.093 -10114491.146 10 0 59572 1800.00000 0 -5310485.508 21318775.918 -12929485.003 10 0 59572 2700.00000 0 -5245153.984 19553708.735 -15492861.409 10 0 59572 3600.00000 0 -5351539.643 17494480.866 -17754769.763 10 0 59572 4500.00000 0 -5663024.420 15197170.952 -19671248.597 10 0 59572 5400.00000 0 -6202031.981 12725135.566 -21205080.674 10 0 59572 6300.00000 0 -6978896.099 10146525.117 -22326514.097 10 0 59572 7200.00000 0 -7991251.866 7531614.237 -23013835.724 10 0 59572 8100.00000 0 -9223975.614 4950058.106 -23253786.416 10 0 59572 9000.00000 0 -10649676.209 2468188.914 -23041810.757 10 0 59572 9900.00000 0 -12229717.099 146464.634 -22382137.126 10 0 59572 10800.00000 0 -13915726.319 -1962824.568 -21287687.306 10 0 59572 11700.00000 0 -15651531.244 -3817498.028 -19779817.915 10 0 59572 12600.00000 0 -17375437.122 -5386994.915 -17887899.161 10 0 59572 13500.00000 0 -19022754.157 -6653392.030 -15648739.351 10 0 59572 14400.00000 0 -20528467.548 -7611888.466 -13105866.441 10 0 59572 15300.00000 0 -21829938.901 -8270738.733 -10308680.661 10 0 59572 16200.00000 0 -22869526.136 -8650639.053 -7311494.620 10 0 59572 17100.00000 0 -23597012.422 -8783594.266 -4172479.427 10 0 59572 18000.00000 0 -23971742.541 -8711314.422 -952537.287 10 0 59572 18900.00000 0 -23964377.419 -8483209.724 2285877.608 10 0 59572 19800.00000 0 -23558193.387 -8154069.211 5479967.171 10 0 59572 20700.00000 0 -22749871.828 -7781521.606 8567803.034 10 0 59572 21600.00000 0 -21549746.080 -7423385.769 11489522.403 10 0 59572 22500.00000 0 -19981495.078 -7135022.664 14188483.260 10 0 59572 23400.00000 0 -18081296.200 -6966800.462 16612356.811 10 0 59572 24300.00000 0 -15896472.198 -6961779.585 18714136.580 10 0 59572 25200.00000 0 -13483687.900 -7153715.212 20453045.146 10 0 59572 26100.00000 0 -10906771.011 -7565461.421 21795321.514 10 0 59572 27000.00000 0 -8234246.663 -8207844.461 22714874.431 10 0 59572 27900.00000 0 -5536687.076 -9079053.158 23193789.410 10 0 59572 28800.00000 0 -2883985.404 -10164572.983 23222679.809 10 0 59572 29700.00000 0 -342665.824 -11437667.822 22800875.113 10 0 59572 30600.00000 0 2026659.432 -12860390.723 21936442.413 10 0 59572 31500.00000 0 4171581.180 -14385082.826 20646040.000 10 0 59572 32400.00000 0 6049838.011 -15956299.197 18954605.033 10 0 59572 33300.00000 0 7630834.112 -17513082.232 16894880.266 10 0 59572 34200.00000 0 8896667.164 -18991488.329 14506787.943 10 0 59572 35100.00000 0 9842623.652 -20327262.429 11836662.014 10 0 59572 36000.00000 0 10477121.030 -21458548.306 8936352.718 10 0 59572 36900.00000 0 10821099.438 -22328520.352 5862220.480 10 0 59572 37800.00000 0 10906888.952 -22887825.425 2674038.537 10 0 59572 38700.00000 0 10776600.694 -23096730.934 -566174.207 10 0 59572 39600.00000 0 10480110.488 -22926887.426 -3795366.695 10 0 59572 40500.00000 0 10072721.282 -22362630.154 -6950691.141 10 0 59572 41400.00000 0 9612604.420 -21401763.580 -9970735.326 10 0 59572 42300.00000 0 9158129.268 -20055794.793 -12796726.566 10 0 59572 43200.00000 0 8765195.556 -18349605.308 -15373682.976 10 0 59572 44100.00000 0 8484682.479 -16320574.573 -17651488.812 10 0 59572 45000.00000 0 8360123.474 -14017191.866 -19585872.358 10 0 59572 45900.00000 0 8425705.712 -11497214.800 -21139267.182 10 0 59572 46800.00000 0 8704679.284 -8825451.620 -22281540.114 10 0 59572 47700.00000 0 9208243.449 -6071260.181 -22990572.157 10 0 59572 48600.00000 0 9934956.888 -3305867.985 -23252681.671 10 0 59572 49500.00000 0 10870696.696 -599624.782 -23062882.338 10 0 59572 50400.00000 0 11989167.618 1980698.217 -22424971.623 10 0 59572 51300.00000 0 13252939.908 4374450.878 -21351448.751 10 0 59572 52200.00000 0 14614972.071 6529383.729 -19863264.329 10 0 59572 53100.00000 0 16020554.410 8403570.926 -17989406.945 10 0 59572 54000.00000 0 17409591.807 9966898.168 -15766335.040 10 0 59572 54900.00000 0 18719129.998 11202055.249 -13237265.186 10 0 59572 55800.00000 0 19886019.404 12104993.611 -10451330.701 10 0 59572 56700.00000 0 20849604.884 12684831.641 -7462626.852 10 0 59572 57600.00000 0 21554328.667 12963213.456 -4329161.135 10 0 59572 58500.00000 0 21952137.319 12973149.637 -1111728.987 10 0 59572 59400.00000 0 22004591.815 12757390.017 2127263.321 10 0 59572 60300.00000 0 21684592.185 12366398.045 5325005.891 10 0 59572 61200.00000 0 20977644.320 11856012.815 8419499.106 10 0 59572 62100.00000 0 19882615.632 11284897.709 11350750.915 10 0 59572 63000.00000 0 18411947.569 10711883.430 14061934.585 10 0 59572 63900.00000 0 16591315.626 10193317.358 16500484.751 10 0 59572 64800.00000 0 14458750.349 9780530.761 18619111.090 10 0 59572 65700.00000 0 12063255.135 9517530.315 20376710.523 10 0 59572 66600.00000 0 9462977.438 9439010.932 21739160.804 10 0 59572 67500.00000 0 6723008.300 9568773.440 22679980.729 10 0 59572 68400.00000 0 3912900.378 9918613.846 23180844.559 10 0 59572 69300.00000 0 1104006.318 10487731.310 23231940.909 10 0 59572 70200.00000 0 -1633253.314 11262680.472 22832169.116 10 0 59572 71100.00000 0 -4232080.361 12217871.196 21989168.932 10 0 59572 72000.00000 0 -6631836.840 13316595.995 20719182.338 10 0 59572 72900.00000 0 -8780325.550 14512543.340 19046749.280 10 0 59572 73800.00000 0 -10635719.223 15751734.615 17004242.170 10 0 59572 74700.00000 0 -12168058.122 16974804.379 14631247.107 10 0 59572 75600.00000 0 -13360253.869 18119528.881 11973802.791 10 0 59572 76500.00000 0 -14208557.605 19123496.746 9083511.055 10 0 59572 77400.00000 0 -14722473.019 19926809.280 6016535.799 10 0 59572 78300.00000 0 -14924118.126 20474696.018 2832509.599 10 0 59572 79200.00000 0 -14847063.098 20719934.294 -406630.559 10 0 59572 80100.00000 0 -14534693.740 20624969.513 -3637855.120 10 0 59572 81000.00000 0 -14038170.570 20163645.319 -6798276.944 10 0 59572 81900.00000 0 -13414070.808 19322469.279 -9826384.392 10 0 59572 82800.00000 0 -12721814.153 18101359.485 -12663247.302 10 0 59572 83700.00000 0 -12020982.462 16513839.580 -15253671.410 10 0 59572 84600.00000 0 -11368647.827 14586673.185 -17547277.946 10 0 59572 85500.00000 0 -10816823.003 12358952.644 -19499486.768 10 0 59573 0.00000 0 -10410142.643 9880680.219 -21072383.611 10 0 59573 900.00000 0 -10183873.503 7210899.648 -22235455.483 10 0 59573 1800.00000 0 -10162338.172 4415459.573 -22966178.186 10 0 59573 2700.00000 0 -10357817.895 1564497.654 -23250448.041 10 0 59573 3600.00000 0 -10769980.905 -1270246.674 -23082847.904 10 0 59573 4500.00000 0 -11385859.594 -4018180.508 -22466744.002 10 0 59573 5400.00000 0 -12180376.954 -6612552.912 -21414212.241 10 0 59573 6300.00000 0 -13117399.641 -8992986.280 -19945796.018 10 0 59573 7200.00000 0 -14151272.952 -11107739.349 -18090100.684 10 0 59573 8100.00000 0 -15228772.848 -12915609.081 -15883232.817 10 0 59573 9000.00000 0 -16291392.779 -14387393.768 -13368095.302 10 0 59573 9900.00000 0 -17277869.065 -15506857.905 -10593551.994 10 0 59573 10800.00000 0 -18126838.638 -16271160.329 -7613478.124 10 0 59573 11700.00000 0 -18779517.415 -16690729.397 -4485714.790 10 0 59573 12600.00000 0 -19182286.706 -16788591.993 -1270947.839 10 0 59573 13500.00000 0 -19289078.936 -16599185.971 1968467.202 10 0 59573 14400.00000 0 -19063462.326 -16166707.088 5169711.433 10 0 59573 15300.00000 0 -18480336.811 -15543060.867 8270716.760 10 0 59573 16200.00000 0 -17527169.759 -14785506.162 11211364.577 10 0 59573 17100.00000 0 -16204719.196 -13954089.949 13934646.017 10 0 59573 18000.00000 0 -14527213.695 -13108981.379 16387761.552 10 0 59573 18900.00000 0 -12521980.606 -12307817.117 18523139.178 10 0 59573 19800.00000 0 -10228537.125 -11603169.356 20299352.003 10 0 59573 20700.00000 0 -7697181.008 -11040242.619 21681918.022 10 0 59573 21600.00000 0 -4987138.223 -10654895.818 22643967.153 10 0 59573 22500.00000 0 -2164343.139 -10472072.487 23166763.069 10 0 59573 23400.00000 0 701057.967 -10504705.135 23240069.896 10 0 59573 24300.00000 0 3537377.919 -10753140.013 22862356.679 10 0 59573 25200.00000 0 6274124.673 -11205107.010 22040835.331 10 0 59573 26100.00000 0 8844689.881 -11836236.764 20791330.677 10 0 59573 27000.00000 0 11188879.259 -12611104.236 19137984.291 10 0 59573 27900.00000 0 13255180.229 -13484755.935 17112796.774 10 0 59573 28800.00000 0 15002672.739 -14404657.510 14755016.282 10 0 59573 29700.00000 0 16402503.762 -15312980.479 12110384.150 10 0 59573 30600.00000 0 17438863.933 -16149132.161 9230251.359 10 0 59573 31500.00000 0 18109425.338 -16852422.171 6170582.529 10 0 59573 32400.00000 0 18425222.194 -17364752.509 2990866.581 10 0 59573 33300.00000 0 18409979.617 -17633216.849 -247044.580 10 0 59573 34200.00000 0 18098919.114 -17612498.081 -3480146.129 10 0 59573 35100.00000 0 17537091.846 -17266961.427 -6645514.766 10 0 59573 36000.00000 0 16777310.874 -16572353.276 -9681542.493 10 0 59573 36900.00000 0 15877770.765 -15517032.598 -12529144.527 10 0 59573 37800.00000 0 14899456.288 -14102681.707 -15132916.826 10 0 59573 38700.00000 0 13903450.774 -12344465.353 -17442219.909 10 0 59573 39600.00000 0 12948258.809 -10270630.675 -19412167.200 10 0 59573 40500.00000 0 12087257.020 -7921564.214 -21004498.503 10 0 59573 41400.00000 0 11366380.895 -5348345.113 -22188321.695 10 0 59573 42300.00000 0 10822145.249 -2610854.853 -22940708.561 10 0 59573 43200.00000 0 10480081.435 224477.748 -23247133.810 10 0 59573 44100.00000 0 10353656.562 3087202.514 -23101749.483 10 0 59573 45000.00000 0 10443719.406 5905539.884 -22507490.151 10 0 59573 45900.00000 0 10738495.475 8609127.452 -21476007.598 10 0 59573 46800.00000 0 11214130.486 11131707.506 -20027436.842 10 0 59573 47700.00000 0 11835758.622 13413644.667 -18189998.481 10 0 59573 48600.00000 0 12559049.854 15404170.009 -15999445.396 10 0 59573 49500.00000 0 13332170.708 17063259.549 -13498364.637 10 0 59573 50400.00000 0 14098075.523 18363070.170 -10735348.161 10 0 59573 51300.00000 0 14797031.495 19288874.587 -7764048.456 10 0 59573 52200.00000 0 15369271.011 19839457.853 -4642137.299 10 0 59573 53100.00000 0 15757659.499 20026960.228 -1430187.867 10 0 59573 54000.00000 0 15910266.375 19876174.406 1809498.201 10 0 59573 54900.00000 0 15782730.753 19423327.790 5014096.127 10 0 59573 55800.00000 0 15340322.221 18714401.884 8121472.325 10 0 59573 56700.00000 0 14559609.751 17803060.117 11071384.429 10 0 59573 57600.00000 0 13429668.204 16748271.635 13806643.979 10 0 59573 58500.00000 0 11952771.202 15611731.033 16274219.546 10 0 59573 59400.00000 0 10144540.549 14455182.366 18426259.410 10 0 59573 60300.00000 0 8033544.838 13337759.515 20221014.547 10 0 59573 61200.00000 0 5660362.812 12313454.145 21623644.580 10 0 59573 62100.00000 0 3076149.062 11428817.011 22606891.640 10 0 59573 63000.00000 0 340760.155 10720988.580 23151609.576 10 0 59573 63900.00000 0 -2479482.479 10216141.262 23247138.426 10 0 59573 64800.00000 0 -5314301.616 9928398.419 22891516.943 10 0 59573 65700.00000 0 -8092142.641 9859275.592 22091528.749 10 0 59573 66600.00000 0 -10742911.323 9997667.772 20862580.589 10 0 59573 67500.00000 0 -13200658.339 10320383.763 19228414.245 10 0 59573 68400.00000 0 -15406099.728 10793205.897 17220656.612 10 0 59573 69300.00000 0 -17308868.731 11372431.196 14878215.594 10 0 59573 70200.00000 0 -18869405.327 12006829.734 12246532.514 10 0 59573 71100.00000 0 -20060404.530 12639937.986 9376704.620 10 0 59573 72000.00000 0 -20867762.591 13212590.484 6324494.228 10 0 59573 72900.00000 0 -21290981.300 13665582.518 3149243.540 10 0 59573 73800.00000 0 -21343013.322 13942350.644 -87283.672 10 0 59573 74700.00000 0 -21049555.147 13991556.580 -3322110.298 10 0 59573 75600.00000 0 -20447817.820 13769463.897 -6492279.766 10 0 59573 76500.00000 0 -19584827.887 13242005.503 -9536090.487 10 0 59573 77400.00000 0 -18515331.101 12386453.058 -12394305.659 10 0 59573 78300.00000 0 -17299388.351 11192616.374 -15011313.867 10 0 59573 79200.00000 0 -15999766.315 9663520.948 -17336217.059 10 0 59573 80100.00000 0 -14679233.867 7815534.090 -19323824.055 10 0 59573 81000.00000 0 -13397879.018 5677933.502 -20935530.076 10 0 59573 81900.00000 0 -12210559.834 3291935.805 -22140065.250 10 0 59573 82800.00000 0 -11164596.820 709225.307 -22914097.877 10 0 59573 83700.00000 0 -10297803.525 -2009955.812 -23242681.359 10 0 59573 84600.00000 0 -9636937.553 -4799076.554 -23119536.812 10 0 59573 85500.00000 0 -9196636.172 -7587851.051 -22547166.643 99